Time,TemperatureF,DewpointF,PressureIn,WindDirection,WindDirectionDegrees,WindSpeedMPH,WindSpeedGustMPH,Humidity,HourlyPrecipIn,Conditions,Clouds,dailyrainin,SoftwareType,DateUTC
2013-01-16 00:00:00,33.0,-99.9,-100.00,NW,308,1.0,-999.0,-999,-99.99,,,-99.99,,2013-01-16 08:00:00,
2013-01-16 01:00:00,33.0,-99.9,-100.00,South,185,1.0,-999.0,-999,-99.99,,,-99.99,,2013-01-16 09:00:00,
2013-01-16 02:00:00,32.0,-99.9,-100.00,SW,231,1.0,-999.0,-999,-99.99,,,-99.99,,2013-01-16 10:00:00,
2013-01-16 04:00:00,32.0,-99.9,-100.00,South,182,2.0,-999.0,-999,-99.99,,,-99.99,,2013-01-16 12:00:00,
2013-01-16 05:00:00,33.0,-99.9,-100.00,SSE,164,2.0,-999.0,-999,-99.99,,,-99.99,,2013-01-16 13:00:00,
2013-01-16 06:00:00,33.0,-99.9,-100.00,SSE,159,2.0,-999.0,-999,-99.99,,,-99.99,,2013-01-16 14:00:00,
2013-01-16 09:00:00,33.0,-99.9,-100.00,South,191,1.0,-999.0,-999,-99.99,,,-99.99,,2013-01-16 17:00:00,
2013-01-16 10:00:00,34.0,-99.9,-100.00,South,187,2.0,-999.0,-999,-99.99,,,-99.99,,2013-01-16 18:00:00,
2013-01-16 11:00:00,35.0,-99.9,-100.00,SSE,149,2.0,-999.0,-999,-99.99,,,-99.99,,2013-01-16 19:00:00,
2013-01-16 12:00:00,39.0,-99.9,-100.00,SSE,160,2.0,-999.0,-999,-99.99,,,-99.99,,2013-01-16 20:00:00,
2013-01-16 13:00:00,46.0,-99.9,-100.00,NW,310,2.0,-999.0,-999,-99.99,,,-99.99,,2013-01-16 21:00:00,
2013-01-16 14:00:00,46.0,-99.9,-100.00,North,2,3.0,-999.0,-999,-99.99,,,-99.99,,2013-01-16 22:00:00,
2013-01-16 15:00:00,45.0,-99.9,-100.00,NW,316,5.0,-999.0,-999,-99.99,,,-99.99,,2013-01-16 23:00:00,
2013-01-16 16:00:00,44.0,-99.9,-100.00,NW,311,5.0,-999.0,-999,-99.99,,,-99.99,,2013-01-17 00:00:00,
2013-01-16 17:00:00,42.0,-99.9,-100.00,NW,305,3.0,-999.0,-999,-99.99,,,-99.99,,2013-01-17 01:00:00,
2013-01-16 18:00:00,41.0,-99.9,-100.00,NW,311,3.0,-999.0,-999,-99.99,,,-99.99,,2013-01-17 02:00:00,
2013-01-16 19:00:00,39.0,-99.9,-100.00,North,360,2.0,-999.0,-999,-99.99,,,-99.99,,2013-01-17 03:00:00,
2013-01-16 21:00:00,37.0,-99.9,-100.00,NNE,22,3.0,-999.0,-999,-99.99,,,-99.99,,2013-01-17 05:00:00,
2013-01-16 22:00:00,36.0,-99.9,-100.00,North,10,2.0,-999.0,-999,-99.99,,,-99.99,,2013-01-17 06:00:00,
2013-01-16 23:00:00,34.0,-99.9,-100.00,WNW,282,1.0,-999.0,-999,-99.99,,,-99.99,,2013-01-17 07:00:00,